Hourly Weather Albany

Today, 8 August, Saturday

Time Temperature Precipitation Wind Pressure Humidity
00:00 +7°C° 0 mm 4 mps 763 mmHg 87%
01:00 +7°C° 0 mm 4 mps 763 mmHg 87%
02:00 +7°C° 0 mm 4 mps 763 mmHg 88%
03:00 +7°C° 0 mm 5 mps 762 mmHg 86%
04:00 +7°C° 0 mm 5 mps 762 mmHg 85%
05:00 +7°C° 0 mm 6 mps 762 mmHg 83%
06:00 +7°C° 0 mm 6 mps 762 mmHg 81%
07:00 +6°C° 0 mm 7 mps 762 mmHg 79%
08:00 +6°C° 0 mm 7 mps 762 mmHg 74%
09:00 +9°C° 0 mm 7 mps 761 mmHg 69%
10:00 +10°C° 0 mm 8 mps 761 mmHg 63%
11:00 +12°C° 0 mm 8 mps 761 mmHg 58%
12:00 +12°C° 0 mm 8 mps 760 mmHg 58%
13:00 +13°C° 0 mm 8 mps 759 mmHg 57%
14:00 +15°C° 0 mm 8 mps 758 mmHg 57%
15:00 +14°C° 0 mm 7 mps 757 mmHg 60%
16:00 +14°C° 0 mm 7 mps 757 mmHg 63%
17:00 +12°C° 0 mm 7 mps 757 mmHg 66%
18:00 +12°C° 0 mm 7 mps 757 mmHg 62%
19:00 +12°C° 0 mm 8 mps 756 mmHg 58%
20:00 +12°C° 0 mm 9 mps 756 mmHg 53%
21:00 +12°C° 0 mm 9 mps 755 mmHg 53%
22:00 +12°C° 0 mm 9 mps 755 mmHg 52%
23:00 +12°C° 0 mm 9 mps 754 mmHg 51%

Tomorrow, 9 August, Sunday

Time Temperature Precipitation Wind Pressure Humidity
00:00 +12°C° 0 mm 10 mps 754 mmHg 51%
01:00 +12°C° 0 mm 10 mps 753 mmHg 50%
02:00 +12°C° 0 mm 10 mps 752 mmHg 50%
03:00 +12°C° 0 mm 10 mps 751 mmHg 48%
04:00 +12°C° 0 mm 10 mps 751 mmHg 47%
05:00 +12°C° 0 mm 9 mps 751 mmHg 45%
06:00 +12°C° 0.1 mm 9 mps 750 mmHg 53%
07:00 +11°C° 0.1 mm 10 mps 750 mmHg 61%
08:00 +9°C° 0.1 mm 10 mps 749 mmHg 68%
09:00 +11°C° 0.2 mm 11 mps 748 mmHg 69%
10:00 +10°C° 0.2 mm 13 mps 748 mmHg 70%
11:00 +12°C° 0.2 mm 14 mps 747 mmHg 71%
12:00 +12°C° 0 mm 14 mps 746 mmHg 71%
13:00 +12°C° 0 mm 13 mps 745 mmHg 70%
14:00 +12°C° 0 mm 13 mps 743 mmHg 70%
15:00 +12°C° 0.1 mm 13 mps 743 mmHg 73%
16:00 +10°C° 0.1 mm 12 mps 743 mmHg 76%
17:00 +10°C° 0.1 mm 12 mps 743 mmHg 80%
18:00 +11°C° 0.1 mm 11 mps 742 mmHg 82%
19:00 +10°C° 0.1 mm 9 mps 742 mmHg 85%
20:00 +10°C° 0.1 mm 8 mps 741 mmHg 88%
21:00 +10°C° 0.4 mm 8 mps 741 mmHg 89%
22:00 +10°C° 0.4 mm 7 mps 741 mmHg 91%
23:00 +10°C° 0.4 mm 6 mps 740 mmHg 92%

Day after tomorrow, 10 August, Monday

Time Temperature Precipitation Wind Pressure Humidity
00:00 +10°C° 0 mm 7 mps 740 mmHg 92%
01:00 +10°C° 0 mm 7 mps 740 mmHg 91%
02:00 +9°C° 0 mm 8 mps 739 mmHg 91%
03:00 +10°C° 1.1 mm 8 mps 740 mmHg 91%
04:00 +10°C° 1.1 mm 8 mps 740 mmHg 91%
05:00 +10°C° 1.1 mm 8 mps 740 mmHg 91%
06:00 +10°C° 0.1 mm 8 mps 740 mmHg 90%
07:00 +10°C° 0.1 mm 7 mps 740 mmHg 90%
08:00 +9°C° 0.1 mm 7 mps 741 mmHg 89%
09:00 +11°C° 0 mm 8 mps 741 mmHg 82%
10:00 +13°C° 0 mm 8 mps 741 mmHg 74%
11:00 +15°C° 0 mm 8 mps 742 mmHg 67%
12:00 +15°C° 0.2 mm 8 mps 741 mmHg 70%
13:00 +15°C° 0.2 mm 7 mps 740 mmHg 72%
14:00 +15°C° 0.2 mm 7 mps 740 mmHg 75%
15:00 +15°C° 0.1 mm 7 mps 740 mmHg 75%
16:00 +14°C° 0.1 mm 7 mps 740 mmHg 76%
17:00 +14°C° 0.1 mm 7 mps 740 mmHg 76%
18:00 +13°C° 0.5 mm 8 mps 741 mmHg 80%
19:00 +12°C° 0.5 mm 8 mps 741 mmHg 85%
20:00 +12°C° 0.5 mm 9 mps 741 mmHg 89%
21:00 +12°C° 0.3 mm 9 mps 742 mmHg 89%
22:00 +12°C° 0.3 mm 8 mps 742 mmHg 89%
23:00 +12°C° 0.3 mm 8 mps 743 mmHg 89%

11 August, Tuesday

Time Temperature Precipitation Wind Pressure Humidity
00:00 +12°C° 0.4 mm 8 mps 743 mmHg 89%
01:00 +12°C° 0.4 mm 9 mps 743 mmHg 89%
02:00 +12°C° 0.4 mm 9 mps 743 mmHg 89%
03:00 +12°C° 0.6 mm 9 mps 744 mmHg 88%
04:00 +12°C° 0.6 mm 9 mps 744 mmHg 88%
05:00 +12°C° 0.6 mm 10 mps 745 mmHg 87%
06:00 +12°C° 0.2 mm 9 mps 745 mmHg 87%
07:00 +12°C° 0.2 mm 9 mps 746 mmHg 87%
08:00 +12°C° 0.2 mm 9 mps 746 mmHg 87%
09:00 +12°C° 0.2 mm 9 mps 747 mmHg 85%
10:00 +13°C° 0.2 mm 9 mps 747 mmHg 84%
11:00 +13°C° 0.2 mm 9 mps 748 mmHg 82%
12:00 +13°C° 0.4 mm 9 mps 748 mmHg 83%
13:00 +13°C° 0.4 mm 9 mps 748 mmHg 84%
14:00 +13°C° 0.4 mm 9 mps 748 mmHg 84%
15:00 +12°C° 0.6 mm 9 mps 748 mmHg 86%
16:00 +12°C° 0.6 mm 8 mps 749 mmHg 87%
17:00 +12°C° 0.6 mm 8 mps 750 mmHg 88%
18:00 +11°C° 0.4 mm 8 mps 750 mmHg 89%
19:00 +11°C° 0.4 mm 7 mps 751 mmHg 89%
20:00 +11°C° 0.4 mm 7 mps 751 mmHg 89%
21:00 +11°C° 0.5 mm 7 mps 751 mmHg 90%
22:00 +11°C° 0.5 mm 6 mps 752 mmHg 90%
23:00 +11°C° 0.5 mm 6 mps 752 mmHg 90%

12 August, Wednesday

Time Temperature Precipitation Wind Pressure Humidity
00:00 +11°C° 0.5 mm 6 mps 752 mmHg 90%
01:00 +11°C° 0.5 mm 6 mps 752 mmHg 91%
02:00 +12°C° 0.5 mm 5 mps 752 mmHg 91%
03:00 +12°C° 0.6 mm 5 mps 752 mmHg 91%
04:00 +12°C° 0.6 mm 5 mps 752 mmHg 91%
05:00 +12°C° 0.6 mm 5 mps 752 mmHg 90%
06:00 +10°C° 0.6 mm 5 mps 753 mmHg 90%
07:00 +10°C° 0.6 mm 5 mps 753 mmHg 90%
08:00 +10°C° 0.6 mm 5 mps 754 mmHg 90%
09:00 +12°C° 0.6 mm 5 mps 754 mmHg 89%
10:00 +12°C° 0.6 mm 5 mps 754 mmHg 88%
11:00 +13°C° 0.6 mm 5 mps 754 mmHg 87%
12:00 +13°C° 0.4 mm 5 mps 754 mmHg 87%
13:00 +12°C° 0.4 mm 5 mps 754 mmHg 88%
14:00 +12°C° 0.4 mm 5 mps 753 mmHg 88%
15:00 +12°C° 0.4 mm 5 mps 754 mmHg 88%
16:00 +12°C° 0.4 mm 4 mps 754 mmHg 88%
17:00 +12°C° 0.4 mm 4 mps 754 mmHg 88%
18:00 +11°C° 0.5 mm 4 mps 755 mmHg 89%
19:00 +11°C° 0.5 mm 4 mps 755 mmHg 90%
20:00 +9°C° 0.5 mm 5 mps 756 mmHg 91%
21:00 +10°C° 0.5 mm 4 mps 756 mmHg 91%
22:00 +10°C° 0.5 mm 4 mps 756 mmHg 91%
23:00 +8°C° 0.5 mm 4 mps 756 mmHg 92%

13 August, Thursday

Time Temperature Precipitation Wind Pressure Humidity
00:00 +8°C° 0.3 mm 4 mps 756 mmHg 92%
01:00 +8°C° 0.3 mm 4 mps 756 mmHg 92%
02:00 +8°C° 0.3 mm 5 mps 756 mmHg 92%
03:00 +8°C° 0.4 mm 5 mps 756 mmHg 92%
04:00 +8°C° 0.4 mm 4 mps 756 mmHg 92%
05:00 +8°C° 0.4 mm 4 mps 756 mmHg 92%
06:00 +8°C° 0.6 mm 4 mps 756 mmHg 92%
07:00 +8°C° 0.6 mm 4 mps 757 mmHg 91%
08:00 +10°C° 0.6 mm 4 mps 757 mmHg 91%
09:00 +10°C° 0.5 mm 4 mps 757 mmHg 90%
10:00 +11°C° 0.5 mm 4 mps 758 mmHg 88%
11:00 +11°C° 0.5 mm 4 mps 758 mmHg 87%
12:00 +12°C° 0.4 mm 4 mps 757 mmHg 86%
13:00 +12°C° 0.4 mm 4 mps 757 mmHg 86%
14:00 +12°C° 0.4 mm 4 mps 757 mmHg 86%
15:00 +12°C° 0.2 mm 4 mps 757 mmHg 87%
16:00 +11°C° 0.2 mm 4 mps 757 mmHg 88%
17:00 +11°C° 0.2 mm 4 mps 758 mmHg 89%
18:00 +11°C° 0.2 mm 4 mps 758 mmHg 89%
19:00 +10°C° 0.2 mm 4 mps 758 mmHg 89%
20:00 +10°C° 0.2 mm 3 mps 758 mmHg 89%
21:00 +9°C° 0.1 mm 3 mps 759 mmHg 90%
22:00 +8°C° 0.1 mm 3 mps 759 mmHg 91%
23:00 +8°C° 0.1 mm 3 mps 759 mmHg 91%
Show more